• In Hungary
  • List of Countries
  • For 7 days
  • Water Temperature
  • Satellite Maps
  • Weather Map
  • News
  • Weather Widgets
  • user-avatar
    Login

    Hourly Weather Usogorsk

    Today, 27 May, Sunday

    Time Temperature Precipitation Wind Pressure Humidity
    00:00 +10°C° 0 mm 3 mps 752 mmHg 58%
    01:00 +9°C° 0 mm 3 mps 752 mmHg 60%
    02:00 +8°C° 0 mm 2 mps 752 mmHg 62%
    03:00 +7°C° 0 mm 2 mps 753 mmHg 61%
    04:00 +8°C° 0 mm 2 mps 752 mmHg 57%
    05:00 +8°C° 0 mm 2 mps 752 mmHg 52%
    06:00 +9°C° 0 mm 2 mps 752 mmHg 48%
    07:00 +10°C° 0 mm 3 mps 751 mmHg 44%
    08:00 +11°C° 0 mm 4 mps 751 mmHg 40%
    09:00 +10°C° 0 mm 5 mps 751 mmHg 37%
    10:00 +10°C° 0.1 mm 5 mps 751 mmHg 37%
    11:00 +10°C° 0.1 mm 5 mps 751 mmHg 37%
    12:00 +12°C° 0.1 mm 5 mps 750 mmHg 37%
    13:00 +10°C° 0 mm 6 mps 751 mmHg 38%
    14:00 +10°C° 0 mm 6 mps 751 mmHg 38%
    15:00 +10°C° 0 mm 6 mps 751 mmHg 39%
    16:00 +9°C° 0 mm 6 mps 751 mmHg 40%
    17:00 +8°C° 0 mm 6 mps 751 mmHg 41%
    18:00 +8°C° 0 mm 6 mps 752 mmHg 42%
    19:00 +7°C° 0 mm 6 mps 752 mmHg 45%
    20:00 +5°C° 0 mm 5 mps 752 mmHg 48%
    21:00 +3°C° 0 mm 5 mps 753 mmHg 52%
    22:00 +2°C° 0 mm 5 mps 753 mmHg 56%
    23:00 +2°C° 0 mm 5 mps 753 mmHg 60%

    Tomorrow, 28 May, Monday

    Time Temperature Precipitation Wind Pressure Humidity
    00:00 +1°C° 0 mm 5 mps 754 mmHg 64%
    01:00 +1°C° 0 mm 5 mps 754 mmHg 64%
    02:00 +1°C° 0 mm 5 mps 754 mmHg 65%
    03:00 +2°C° 0 mm 6 mps 754 mmHg 65%
    04:00 +2°C° 0 mm 6 mps 755 mmHg 64%
    05:00 +2°C° 0 mm 6 mps 755 mmHg 64%
    06:00 +2°C° 0 mm 6 mps 756 mmHg 63%
    07:00 +3°C° 0 mm 6 mps 756 mmHg 59%
    08:00 +3°C° 0 mm 6 mps 757 mmHg 55%
    09:00 +4°C° 0 mm 6 mps 757 mmHg 51%
    10:00 +5°C° 0 mm 6 mps 757 mmHg 48%
    11:00 +6°C° 0 mm 5 mps 757 mmHg 45%
    12:00 +7°C° 0 mm 5 mps 758 mmHg 42%
    13:00 +7°C° 0 mm 5 mps 757 mmHg 41%
    14:00 +8°C° 0 mm 5 mps 757 mmHg 40%
    15:00 +9°C° 0 mm 5 mps 757 mmHg 39%
    16:00 +8°C° 0.1 mm 5 mps 757 mmHg 46%
    17:00 +8°C° 0.1 mm 4 mps 756 mmHg 53%
    18:00 +7°C° 0.1 mm 4 mps 756 mmHg 59%
    19:00 +8°C° 0.3 mm 3 mps 755 mmHg 68%
    20:00 +7°C° 0.3 mm 3 mps 755 mmHg 76%
    21:00 +5°C° 0.3 mm 3 mps 754 mmHg 84%
    22:00 +5°C° 0.1 mm 3 mps 754 mmHg 85%
    23:00 +7°C° 0.1 mm 3 mps 753 mmHg 86%

    Day after tomorrow, 29 May, Tuesday

    Time Temperature Precipitation Wind Pressure Humidity
    00:00 +6°C° 0.1 mm 4 mps 753 mmHg 86%
    01:00 +5°C° 0.1 mm 3 mps 753 mmHg 87%
    02:00 +4°C° 0.1 mm 3 mps 752 mmHg 88%
    03:00 +4°C° 0.1 mm 3 mps 752 mmHg 89%
    04:00 +4°C° 0 mm 3 mps 752 mmHg 84%
    05:00 +5°C° 0 mm 4 mps 752 mmHg 79%
    06:00 +5°C° 0 mm 4 mps 752 mmHg 74%
    07:00 +5°C° 0 mm 4 mps 752 mmHg 72%
    08:00 +5°C° 0 mm 4 mps 752 mmHg 69%
    09:00 +6°C° 0 mm 4 mps 752 mmHg 66%
    10:00 +8°C° 0 mm 3 mps 752 mmHg 61%
    11:00 +8°C° 0 mm 3 mps 752 mmHg 55%
    12:00 +9°C° 0 mm 3 mps 751 mmHg 50%
    13:00 +10°C° 0 mm 3 mps 751 mmHg 46%
    14:00 +12°C° 0 mm 3 mps 750 mmHg 42%
    15:00 +14°C° 0 mm 2 mps 750 mmHg 38%
    16:00 +13°C° 0 mm 2 mps 749 mmHg 40%
    17:00 +13°C° 0 mm 1 mps 748 mmHg 42%
    18:00 +13°C° 0 mm 1 mps 748 mmHg 45%
    19:00 +11°C° 0.2 mm 1 mps 747 mmHg 53%
    20:00 +10°C° 0.2 mm 1 mps 746 mmHg 62%
    21:00 +9°C° 0.2 mm 1 mps 746 mmHg 71%
    22:00 +8°C° 0.5 mm 2 mps 744 mmHg 76%
    23:00 +7°C° 0.5 mm 3 mps 743 mmHg 82%

    30 May, Wednesday

    Time Temperature Precipitation Wind Pressure Humidity
    00:00 +7°C° 0.5 mm 3 mps 742 mmHg 88%
    01:00 +8°C° 1.3 mm 3 mps 740 mmHg 90%
    02:00 +7°C° 1.3 mm 4 mps 739 mmHg 92%
    03:00 +8°C° 1.3 mm 4 mps 737 mmHg 95%
    04:00 +8°C° 0.5 mm 4 mps 736 mmHg 93%
    05:00 +10°C° 0.5 mm 4 mps 735 mmHg 92%
    06:00 +11°C° 0.5 mm 4 mps 734 mmHg 91%
    07:00 +10°C° 0.3 mm 5 mps 733 mmHg 87%
    08:00 +10°C° 0.3 mm 5 mps 733 mmHg 82%
    09:00 +10°C° 0.3 mm 6 mps 732 mmHg 77%
    10:00 +9°C° 0.2 mm 5 mps 732 mmHg 76%
    11:00 +9°C° 0.2 mm 5 mps 733 mmHg 74%
    12:00 +8°C° 0.2 mm 5 mps 733 mmHg 73%
    13:00 +8°C° 0.3 mm 5 mps 733 mmHg 76%
    14:00 +7°C° 0.3 mm 5 mps 734 mmHg 80%
    15:00 +6°C° 0.3 mm 5 mps 734 mmHg 83%
    16:00 +5°C° 0.5 mm 5 mps 735 mmHg 83%
    17:00 +4°C° 0.5 mm 6 mps 736 mmHg 82%
    18:00 +4°C° 0.5 mm 6 mps 737 mmHg 82%
    19:00 +3°C° 0.2 mm 6 mps 738 mmHg 80%
    20:00 +3°C° 0.2 mm 6 mps 739 mmHg 79%
    21:00 +3°C° 0.2 mm 5 mps 740 mmHg 77%
    22:00 +2°C° 0 mm 5 mps 741 mmHg 77%
    23:00 +2°C° 0 mm 5 mps 741 mmHg 78%

    31 May, Thursday

    Time Temperature Precipitation Wind Pressure Humidity
    00:00 +1°C° 0 mm 5 mps 742 mmHg 78%
    01:00 0°C° 0 mm 5 mps 743 mmHg 78%
    02:00 -1°C° 0 mm 5 mps 744 mmHg 78%
    03:00 -2°C° 0 mm 5 mps 744 mmHg 78%
    04:00 -1°C° 0 mm 5 mps 745 mmHg 73%
    05:00 -2°C° 0 mm 6 mps 745 mmHg 67%
    06:00 -1°C° 0 mm 6 mps 746 mmHg 62%
    07:00 -1°C° 0 mm 6 mps 746 mmHg 57%
    08:00 +1°C° 0 mm 6 mps 747 mmHg 52%
    09:00 +2°C° 0 mm 6 mps 748 mmHg 47%
    10:00 +3°C° 0 mm 6 mps 748 mmHg 46%
    11:00 +4°C° 0 mm 6 mps 748 mmHg 44%
    12:00 +4°C° 0 mm 6 mps 749 mmHg 42%
    13:00 +5°C° 0 mm 6 mps 749 mmHg 42%
    14:00 +6°C° 0 mm 5 mps 750 mmHg 41%
    15:00 +6°C° 0 mm 5 mps 750 mmHg 41%
    16:00 +6°C° 0 mm 5 mps 750 mmHg 43%
    17:00 +5°C° 0 mm 5 mps 751 mmHg 45%
    18:00 +5°C° 0 mm 5 mps 751 mmHg 47%
    19:00 +4°C° 0 mm 4 mps 751 mmHg 50%
    20:00 +3°C° 0 mm 4 mps 752 mmHg 54%
    21:00 +2°C° 0 mm 3 mps 752 mmHg 57%
    22:00 +2°C° 0 mm 3 mps 752 mmHg 60%
    23:00 +1°C° 0 mm 3 mps 753 mmHg 63%

    1 June, Friday

    Time Temperature Precipitation Wind Pressure Humidity
    00:00 +1°C° 0 mm 3 mps 753 mmHg 66%
    01:00 0°C° 0 mm 3 mps 753 mmHg 68%
    02:00 0°C° 0 mm 3 mps 754 mmHg 70%
    03:00 -1°C° 0 mm 3 mps 754 mmHg 73%
    04:00 0°C° 0 mm 3 mps 754 mmHg 70%
    05:00 +1°C° 0 mm 3 mps 755 mmHg 67%
    06:00 +1°C° 0 mm 3 mps 755 mmHg 65%
    07:00 +2°C° 0 mm 3 mps 755 mmHg 60%
    08:00 +3°C° 0 mm 3 mps 756 mmHg 56%
    09:00 +4°C° 0 mm 3 mps 756 mmHg 51%
    10:00 +4°C° 0 mm 3 mps 756 mmHg 49%
    11:00 +5°C° 0 mm 3 mps 756 mmHg 46%
    12:00 +5°C° 0 mm 3 mps 757 mmHg 44%
    13:00 +5°C° 0 mm 3 mps 757 mmHg 44%
    14:00 +5°C° 0 mm 3 mps 757 mmHg 44%
    15:00 +7°C° 0 mm 3 mps 757 mmHg 44%
    16:00 +5°C° 0 mm 3 mps 757 mmHg 45%
    17:00 +5°C° 0 mm 3 mps 757 mmHg 47%
    18:00 +5°C° 0 mm 3 mps 757 mmHg 48%
    19:00 +5°C° 0 mm 2 mps 757 mmHg 54%
    20:00 +4°C° 0 mm 1 mps 757 mmHg 59%
    21:00 +3°C° 0 mm 1 mps 757 mmHg 65%
    22:00 +3°C° 0 mm 1 mps 757 mmHg 68%
    23:00 +2°C° 0 mm 1 mps 757 mmHg 71%
    Show more